DK1MAX-13 Weather Reports


Display with metric or nautical units.
time (UTC)temp
F
wind
direction
speed
MPH
gust
MPH
rain 1hr
in
rain 24hr
in
rain mn
in
humidity
%
barometer
mb
20210919073759 51 83 2.0 7.0 0.00 0.00 0.00 99 1012.5
20210919072752 51 84 2.0 4.0 0.00 0.00 0.00 99 1012.6
20210919071741 50 101 2.0 6.0 0.00 0.00 0.00 99 1012.5
20210919070731 50 53 1.0 4.0 0.00 0.00 0.00 99 1012.5
20210919065721 50 39 1.0 3.0 0.00 0.00 0.00 99 1012.5
20210919064814 50 72 1.0 3.0 0.00 0.00 0.00 99 1012.6
20210919063808 49 37 1.0 6.0 0.00 0.00 0.00 99 1012.6
20210919062749 49 68 0.0 2.0 0.00 0.00 0.00 99 1012.7
20210919061741 48 68 0.0 1.0 0.00 0.00 0.00 99 1012.7
20210919060729 48 0.0 0.0 0.00 0.00 0.00 99 1012.7
20210919055723 48 105 0.0 1.0 0.00 0.00 0.00 99 1012.6
20210919054811 47 0.0 0.0 0.00 0.00 0.00 99 1012.7
20210919053801 47 0.0 0.0 0.00 0.00 0.00 99 1012.6
20210919052750 47 0.0 0.0 0.00 0.00 0.00 99 1012.4
20210919051746 47 56 0.0 1.0 0.00 0.00 0.00 99 1012.3
20210919050731 46 73 0.0 1.0 0.00 0.00 0.00 99 1012.3
20210919045720 47 73 0.0 1.0 0.00 0.00 0.00 99 1012.1
20210919044812 47 62 1.0 3.0 0.00 0.00 0.00 99 1011.9
20210919043801 47 75 1.0 2.0 0.00 0.00 0.00 99 1011.9
20210919042749 47 78 0.0 2.0 0.00 0.00 0.00 99 1012.0
20210919041739 47 58 1.0 2.0 0.00 0.00 0.00 99 1012.1
20210919040733 47 58 0.0 2.0 0.00 0.00 0.00 99 1012.2
20210919035724 47 56 0.0 1.0 0.00 0.00 0.00 99 1012.2
20210919034814 45 68 0.0 1.0 0.00 0.00 0.00 99 1012.3
20210919033806 47 0.0 1.0 0.00 0.00 0.00 99 1012.3
20210919032750 46 0.0 0.0 0.00 0.00 0.00 99 1012.5
20210919031743 47 77 0.0 1.0 0.00 0.00 0.00 99 1012.4
20210919030731 48 79 1.0 2.0 0.00 0.00 0.00 99 1012.5
20210919025721 48 77 0.0 2.0 0.00 0.00 0.00 99 1012.6
20210919024816 47 0.0 0.0 0.00 0.00 0.00 99 1012.8
20210919023800 47 0.0 0.0 0.00 0.00 0.00 99 1012.9
20210919022753 48 53 0.0 1.0 0.00 0.00 0.00 99 1013.1
20210919021742 48 0.0 0.0 0.00 0.00 0.00 99 1013.1
20210919020737 48 0.0 0.0 0.00 0.00 0.00 99 1013.2
20210919015724 48 0.0 0.0 0.00 0.00 0.00 99 1013.2
20210919014813 48 45 1.0 1.0 0.00 0.00 0.00 99 1013.3
20210919013806 49 0.0 1.0 0.00 0.00 0.00 99 1013.4
20210919012759 48 0.0 0.0 0.00 0.00 0.00 99 1013.4
20210919011744 49 0.0 0.0 0.00 0.00 0.00 99 1013.5
20210919010739 49 0.0 0.0 0.00 0.00 0.00 99 1013.5
20210919005725 49 0.0 0.0 0.00 0.00 0.00 99 1013.5
20210919004812 50 84 0.0 1.0 0.00 0.00 0.00 99 1013.6
20210919003808 49 0.0 0.0 0.00 0.00 0.00 98 1013.7
20210919002755 50 0.0 1.0 0.00 0.00 0.00 98 1013.6
20210919001744 50 0.0 0.0 0.00 0.00 0.00 98 1013.6
20210919000734 50 0.0 0.0 0.00 0.00 0.00 98 1013.6
20210918235725 50 0.0 0.0 0.00 0.00 0.00 98 1013.7
20210918234814 51 0.0 0.0 0.00 0.00 0.00 97 1013.7
20210918233803 51 0.0 0.0 0.00 0.00 0.00 97 1013.8
20210918232753 51 84 1.0 2.0 0.00 0.00 0.00 97 1013.8
20210918231749 51 85 0.0 1.0 0.00 0.00 0.00 97 1013.9
20210918230733 51 0.0 0.0 0.00 0.00 0.00 97 1013.9
20210918225723 51 0.0 0.0 0.00 0.00 0.00 96 1013.8
20210918224815 52 90 0.0 1.0 0.00 0.00 0.00 96 1013.8
20210918223812 51 69 0.0 2.0 0.00 0.00 0.00 96 1013.9
20210918222756 51 0.0 0.0 0.00 0.00 0.00 96 1013.9
20210918221749 52 0.0 0.0 0.00 0.00 0.00 94 1013.8
20210918220736 53 0.0 0.0 0.00 0.00 0.00 94 1013.9
20210918215724 53 0.0 0.0 0.00 0.00 0.00 94 1014.0
20210918214814 53 97 1.0 1.0 0.00 0.00 0.00 94 1014.1
20210918213808 53 0.0 0.0 0.00 0.00 0.00 93 1014.3
20210918212755 54 97 0.0 1.0 0.00 0.00 0.00 91 1014.3
20210918211746 55 90 1.0 1.0 0.00 0.00 0.00 91 1014.3
20210918210733 55 0.0 1.0 0.00 0.00 0.00 90 1014.2
20210918205724 55 82 1.0 2.0 0.00 0.00 0.00 89 1014.2
20210918204816 55 90 1.0 3.0 0.00 0.00 0.00 89 1014.3
20210918203805 56 96 1.0 3.0 0.00 0.00 0.00 89 1014.3
20210918202757 56 93 0.0 2.0 0.00 0.00 0.00 89 1014.3
20210918201747 56 85 1.0 1.0 0.00 0.00 0.00 89 1014.3
20210918200737 56 73 0.0 1.0 0.00 0.00 0.00 89 1014.5
20210918195723 56 71 0.0 2.0 0.00 0.00 0.00 89 1014.3
20210918194816 56 80 0.0 1.0 0.00 0.00 0.00 90 1014.3
20210918193804 57 73 0.0 1.0 0.00 0.00 0.00 89 1014.2
20210918192754 57 0.0 0.0 0.00 0.00 0.00 87 1014.1
20210918191747 58 0.0 0.0 0.00 0.00 0.00 84 1014.1
20210918190739 59 69 0.0 1.0 0.00 0.00 0.00 83 1014.1
20210918185726 59 84 1.0 2.0 0.00 0.00 0.00 83 1014.0
20210918184819 59 84 1.0 3.0 0.00 0.00 0.00 82 1013.9
20210918183806 59 93 0.0 1.0 0.00 0.00 0.00 83 1013.9
20210918182755 60 85 0.0 1.0 0.00 0.00 0.00 83 1013.9
20210918181745 60 84 0.0 1.0 0.00 0.00 0.00 82 1013.9
20210918180734 60 0.0 0.0 0.00 0.00 0.00 81 1013.7
20210918175725 61 83 0.0 1.0 0.00 0.00 0.00 79 1013.7
20210918174816 61 83 0.0 1.0 0.00 0.00 0.00 78 1013.6
20210918173804 62 83 1.0 1.0 0.00 0.00 0.00 77 1013.4
20210918172756 62 47 1.0 2.0 0.00 0.00 0.00 76 1013.4
20210918171745 63 65 0.0 2.0 0.00 0.00 0.00 75 1013.5
20210918170737 63 63 1.0 2.0 0.00 0.00 0.00 74 1013.4
20210918165725 64 78 0.0 3.0 0.00 0.00 0.00 72 1013.4
20210918164817 64 79 1.0 3.0 0.00 0.00 0.00 71 1013.3
20210918163807 65 47 2.0 4.0 0.00 0.00 0.00 70 1013.4
20210918162800 66 45 2.0 4.0 0.00 0.00 0.00 68 1013.3
20210918161747 66 25 2.0 4.0 0.00 0.00 0.00 67 1013.3
20210918160731 67 16 3.0 6.0 0.00 0.00 0.00 66 1013.5
20210918155723 67 13 3.0 6.0 0.00 0.00 0.00 66 1013.3
20210918154814 67 29 2.0 6.0 0.00 0.00 0.00 65 1013.4
20210918153800 66 9 3.0 4.0 0.00 0.00 0.00 67 1013.4
20210918152752 66 11 3.0 7.0 0.00 0.00 0.00 66 1013.4
20210918151743 67 26 3.0 7.0 0.00 0.00 0.00 64 1013.4
20210918150726 69 23 3.0 6.0 0.00 0.00 0.00 58 1013.5
20210918145816 68 307 1.0 4.0 0.00 0.00 0.00 57 1013.4
20210918144804 68 8 3.0 8.0 0.00 0.00 0.00 56 1013.5
20210918143756 69 328 2.0 4.0 0.00 0.00 0.00 58 1013.5
20210918142745 68 16 3.0 7.0 0.00 0.00 0.00 59 1013.6
20210918141740 67 18 3.0 6.0 0.00 0.00 0.00 61 1013.8
20210918140728 68 22 2.0 6.0 0.00 0.00 0.00 61 1013.7
20210918135821 68 23 2.0 6.0 0.00 0.00 0.00 59 1013.9
20210918134803 69 263 3.0 7.0 0.00 0.00 0.00 57 1013.9
20210918133800 69 259 3.0 9.0 0.00 0.00 0.00 58 1013.9
20210918132744 71 266 3.0 7.0 0.00 0.00 0.00 56 1014.0
20210918131733 69 93 1.0 4.0 0.00 0.00 0.00 57 1014.0
20210918130723 68 55 1.0 4.0 0.00 0.00 0.00 58 1014.1
20210918125823 68 15 2.0 4.0 0.00 0.00 0.00 58 1014.0
20210918124803 68 268 4.0 8.0 0.00 0.00 0.00 59 1014.1
20210918123752 70 320 2.0 4.0 0.00 0.00 0.00 56 1014.1
20210918122742 69 258 4.0 9.0 0.00 0.00 0.00 59 1014.3
20210918121737 69 265 3.0 7.0 0.00 0.00 0.00 59 1014.3
20210918120819 68 78 2.0 4.0 0.00 0.00 0.00 57 1014.4
20210918115807 69 255 3.0 9.0 0.00 0.00 0.00 59 1014.5
20210918114759 67 257 2.0 4.0 0.00 0.00 0.00 60 1014.7
20210918113742 67 264 3.0 8.0 0.00 0.00 0.00 60 1014.8
20210918112732 67 306 4.0 9.0 0.00 0.00 0.00 62 1014.7
20210918111726 66 253 3.0 8.0 0.00 0.00 0.00 61 1014.8
20210918110821 66 280 2.0 3.0 0.00 0.00 0.00 61 1014.9